Dewpoint
-1 -1 -0 0 0 1 2 2 3 3 4 6 6 7 8 8 10 7 8 6 6 7 7 7 7 8 8 7 7 7 8 9 10 8 8 8 9 8 9 8 8 7 7
-2 -2 -2 -1 -0 0 1 1 2 3 4 5 6 7 8 9 10 10 7 7 8 8 9 7 8 8 8 8 7 6 6 8 9 8 8 8 9 9 9 9 9 8 8
-2 -2 -2 -2 -2 -1 -0 0 1 2 3 4 5 6 7 8 8 8 9 8 6 7 8 9 8 8 8 9 7 6 7 8 9 6 8 8 9 9 9 9 10 10 9
-3 -3 -3 -3 -3 -3 -2 -1 -0 0 1 2 3 4 5 6 8 8 8 8 8 9 9 10 9 9 6 5 5 6 6 8 9 8 8 8 9 9 9 9 9 9 9
-4 -4 -4 -4 -4 -3 -3 -3 -2 -1 -1 -0 1 2 4 4 6 8 8 7 5 6 10 11 10 9 6 8 8 7 8 9 9 8 8 9 9 9 9 9 9 9 9
-5 -4 -4 -4 -4 -4 -4 -4 -3 -3 -2 -2 -1 -0 1 2 3 6 7 7 7 8 10 11 10 10 9 7 7 8 8 9 8 8 8 8 8 9 9 9 9 9 9
-5 -5 -4 -4 -4 -3 -3 -4 -4 -4 -4 -4 -3 -3 -2 -1 1 3 4 7 8 8 9 9 9 8 7 7 7 8 10 9 9 8 7 9 8 9 9 8 8 8 9
-5 -5 -5 -5 -4 -4 -3 -4 -4 -5 -5 -5 -5 -5 -4 -3 -1 0 1 3 4 6 5 6 8 9 9 9 9 9 8 9 9 9 9 9 8 8 8 8 7 9 9
-7 -8 -8 -8 -8 -7 -6 -6 -5 -5 -5 -5 -5 -4 -5 -6 -4 -1 0 0 1 1 1 0 4 5 8 7 8 9 9 9 9 9 9 8 7 8 8 8 8 8 8
-9 -11 -12 -13 -14 -12 -14 -15 -10 -7 -6 -6 -6 -6 -6 -5 -5 -4 -2 -1 -0 -1 0 0 0 0 3 4 5 6 7 8 8 8 7 7 8 8 8 8 8 8 8
-8 -11 -12 -14 -16 -19 -20 -18 -18 -19 -20 -16 -10 -7 -6 -6 -6 -5 -4 -4 -3 -3 -3 -2 -1 -1 -0 0 0 2 4 4 7 7 7 7 7 7 7 7 7 7 7
-10 -11 -13 -14 -14 -16 -18 -21 -24 -24 -24 -22 -21 -21 -19 -12 -7 -7 -6 -6 -5 -4 -5 -5 -4 -3 -1 -1 -1 -2 -0 -1 1 4 4 4 5 5 6 6 5 6 6
-13 -14 -14 -14 -14 -16 -17 -17 -19 -22 -23 -21 -21 -18 -16 -19 -22 -14 -8 -7 -6 -6 -5 -5 -5 -4 -4 -3 -3 -3 -2 -2 -2 -0 1 2 2 2 2 3 4 4 3
-16 -15 -14 -14 -13 -13 -14 -14 -15 -18 -18 -15 -14 -16 -15 -13 -16 -21 -20 -13 -9 -7 -6 -6 -6 -5 -5 -5 -4 -4 -4 -4 -3 -3 -4 -2 -3 -1 -1 -0 1 1 1
-16 -13 -12 -12 -12 -12 -12 -11 -12 -15 -17 -12 -12 -12 -13 -13 -12 -13 -19 -21 -16 -11 -9 -8 -8 -8 -8 -7 -7 -6 -7 -6 -6 -6 -5 -5 -4 -4 -3 -3 -2 -2 -1
-13 -13 -13 -13 -14 -13 -13 -13 -13 -14 -17 -18 -15 -13 -14 -14 -14 -14 -17 -19 -22 -21 -21 -17 -11 -10 -10 -10 -9 -9 -8 -8 -8 -7 -7 -6 -5 -5 -5 -5 -4 -4 -3
-15 -15 -16 -15 -13 -13 -13 -14 -15 -16 -17 -18 -19 -16 -14 -16 -20 -20 -18 -18 -21 -22 -22 -19 -17 -17 -13 -11 -11 -11 -10 -10 -9 -8 -8 -7 -7 -7 -6 -6 -6 -6 -6
-16 -14 -13 -14 -14 -13 -13 -14 -14 -15 -16 -17 -19 -19 -18 -20 -22 -24 -24 -23 -24 -21 -18 -17 -17 -16 -15 -15 -14 -13 -12 -11 -11 -10 -10 -10 -9 -8 -8 -8 -7 -7 -8
-16 -15 -15 -16 -17 -15 -15 -15 -15 -16 -16 -16 -17 -17 -18 -19 -22 -23 -24 -25 -23 -22 -19 -18 -17 -17 -17 -16 -15 -15 -14 -13 -13 -13 -12 -11 -11 -10 -9 -9 -9 -9 -8
-19 -17 -18 -19 -20 -18 -17 -16 -16 -16 -16 -15 -15 -16 -17 -19 -20 -20 -21 -22 -23 -23 -23 -22 -21 -20 -19 -18 -17 -17 -16 -15 -14 -14 -14 -15 -16 -13 -13 -11 -10 -10 -10
-19 -18 -18 -19 -19 -18 -18 -17 -17 -16 -17 -17 -16 -16 -16 -17 -18 -19 -19 -19 -20 -22 -23 -23 -23 -25 -23 -21 -19 -18 -17 -16 -16 -15 -14 -14 -14 -15 -15 -16 -17 -18 -20
-19 -19 -19 -18 -19 -19 -19 -19 -20 -20 -19 -19 -18 -18 -18 -18 -18 -18 -19 -19 -19 -20 -22 -22 -23 -23 -24 -25 -22 -21 -19 -18 -17 -17 -16 -15 -14 -14 -14 -15 -16 -18 -20
-18 -18 -18 -18 -17 -18 -18 -17 -17 -18 -20 -21 -21 -22 -21 -20 -19 -19 -18 -19 -20 -20 -21 -22 -22 -22 -23 -24 -25 -26 -26 -25 -20 -18 -17 -16 -16 -16 -15 -16 -16 -17 -19
-17 -17 -18 -18 -18 -18 -17 -17 -17 -18 -18 -17 -18 -19 -20 -21 -22 -22 -22 -21 -21 -21 -21 -22 -22 -22 -22 -23 -23 -24 -26 -28 -26 -22 -18 -17 -17 -16 -16 -16 -17 -17 -17
-18 -18 -20 -19 -19 -18 -19 -19 -19 -19 -19 -19 -18 -18 -18 -18 -20 -20 -22 -22 -23 -23 -23 -23 -22 -22 -21 -23 -23 -23 -23 -26 -27 -26 -19 -18 -18 -17 -17 -17 -17 -17 -17
-18 -18 -19 -19 -20 -20 -21 -21 -21 -21 -20 -19 -19 -18 -18 -18 -19 -20 -19 -19 -20 -21 -23 -24 -24 -22 -22 -22 -22 -23 -24 -24 -26 -26 -22 -19 -19 -19 -18 -18 -18 -20 -20
Wind_Speed
24 23 23 24 23 22 23 25 25 24 26 26 27 29 28 28 28 30 34 35 33 36 45 45 49 51 50 48 44 39 37 38 38 31 23 18 23 22 27 33 32 27 27
23 22 22 22 23 24 23 24 25 24 24 24 25 26 26 23 26 30 29 29 35 35 42 43 47 54 53 49 50 38 33 37 40 34 28 24 26 25 25 28 35 37 36
19 22 22 23 24 24 24 23 23 24 23 21 22 22 23 22 18 22 24 30 32 38 40 47 45 41 47 47 39 32 36 39 42 28 32 29 28 27 25 25 27 32 37
20 23 25 26 26 26 26 25 24 23 21 19 18 18 17 19 19 19 23 25 33 37 43 42 43 41 50 38 40 37 38 49 44 34 33 31 30 29 25 28 29 28 30
22 25 27 27 27 27 27 28 26 24 24 22 18 16 16 17 16 17 20 26 32 46 28 37 33 33 27 38 38 36 37 43 39 34 31 30 32 29 30 30 30 30 34
25 27 27 27 28 29 31 31 29 28 29 28 26 25 22 19 20 15 14 20 20 23 29 30 25 27 30 29 31 29 35 37 33 34 30 31 32 29 27 29 27 36 38
25 27 28 28 29 31 32 33 36 36 32 32 33 34 33 27 25 14 8 10 15 15 20 28 27 29 27 25 28 26 23 27 31 31 29 33 31 30 29 30 29 33 37
28 27 27 27 28 29 31 33 34 37 38 39 39 39 41 37 27 21 16 8 2 12 13 15 22 24 22 28 33 29 26 31 31 28 30 31 31 27 29 29 30 37 39
29 28 27 27 26 27 29 31 32 33 35 38 40 42 44 44 39 30 26 25 22 18 10 4 13 16 23 23 21 27 32 27 28 26 25 26 30 31 34 35 38 39 38
25 25 25 26 27 27 27 28 28 29 31 33 36 38 39 42 44 42 36 33 32 30 25 20 12 7 13 16 17 19 20 23 23 24 27 29 31 32 32 37 37 41 44
17 20 22 24 26 27 26 26 26 27 28 30 32 34 36 38 39 40 40 38 36 34 34 33 29 21 13 4 5 10 12 13 19 19 20 19 19 22 25 28 32 35 40
15 18 21 23 25 26 27 27 28 28 30 31 32 33 35 34 34 34 34 34 33 34 33 30 27 22 22 15 12 9 3 5 9 13 14 13 14 17 20 25 27 30 34
15 18 20 22 24 26 28 30 32 32 32 34 35 35 36 35 32 30 29 28 27 27 25 23 23 25 23 22 18 14 11 6 3 4 7 9 9 11 13 18 21 24 27
17 19 20 22 24 27 30 32 35 37 33 33 34 35 34 36 36 32 29 25 24 23 20 20 20 21 22 22 21 20 19 16 12 10 8 4 4 4 6 9 13 16 19
18 19 20 22 23 26 28 28 31 32 29 28 30 29 32 32 30 28 27 26 23 21 17 16 19 20 20 21 20 20 19 17 16 14 11 9 7 5 3 4 7 10 14
16 18 19 20 21 22 22 22 23 25 26 23 22 24 24 25 24 24 25 23 20 18 17 21 22 22 22 21 19 18 16 15 14 12 11 11 11 8 6 5 7 10 14
14 14 16 17 17 17 19 20 22 21 23 25 25 24 24 26 26 22 20 21 19 17 21 22 23 21 19 18 18 17 15 14 12 12 11 9 8 8 7 8 10 12 15
12 12 14 14 14 14 16 19 20 23 26 28 27 27 29 30 28 25 22 16 19 22 22 21 20 19 18 17 16 15 13 11 11 11 9 9 8 5 6 8 10 13 15
10 12 14 15 15 13 13 14 16 18 21 24 25 27 29 29 28 27 26 27 25 22 20 19 18 17 16 14 13 12 12 11 11 9 9 7 6 5 5 7 9 10 11
10 11 13 14 13 13 14 14 15 16 17 20 24 25 26 28 31 31 29 29 28 27 24 20 18 17 15 13 12 11 10 9 8 8 7 7 6 4 3 3 6 7 8
9 10 12 13 14 14 14 14 15 16 16 16 15 17 21 23 25 27 28 28 28 28 27 25 22 18 15 14 12 10 9 8 7 6 5 4 4 2 1 2 2 0 2
9 11 12 14 14 16 16 17 18 18 18 17 16 17 20 20 20 21 22 22 23 24 27 27 24 22 19 15 13 11 10 8 7 6 5 4 4 3 4 4 4 2 3
10 11 11 11 12 13 12 14 15 17 17 19 19 21 19 19 19 19 17 16 20 22 25 26 23 22 21 18 16 13 12 10 8 7 5 5 5 5 4 4 5 4 4
9 12 14 13 14 14 14 13 13 14 14 14 16 17 18 19 21 20 19 19 18 19 22 22 23 23 23 22 17 16 14 12 8 7 6 5 5 5 4 4 4 5 6
11 14 16 16 15 15 16 17 17 16 16 16 14 12 14 17 16 17 19 17 18 19 22 23 23 22 22 22 19 18 17 13 9 7 7 6 7 7 6 6 6 6 8
14 16 17 15 16 17 18 17 17 18 17 16 15 13 12 12 10 12 13 16 14 16 20 21 21 20 18 18 20 21 19 14 9 7 7 7 8 8 8 6 5 5 7
Wind_Direction
4 359 354 354 352 348 348 343 334 322 315 315 313 312 294 287 283 259 244 248 245 244 248 238 242 240 236 231 231 233 239 236 236 242 234 241 235 230 231 225 223 215 209
9 2 1 359 359 358 353 344 340 335 325 322 314 309 299 295 269 258 257 243 245 248 249 249 242 236 230 236 230 230 243 239 231 230 237 233 231 233 227 226 228 227 224
13 13 13 12 11 8 4 358 349 344 338 332 325 310 302 292 284 248 249 250 246 259 256 253 246 232 219 216 225 234 253 241 232 238 237 236 238 231 228 232 228 228 232
26 28 25 25 24 22 19 15 10 4 353 346 339 338 325 311 275 255 247 248 246 258 256 247 244 226 216 229 233 242 248 245 228 223 221 227 233 228 229 229 222 227 228
36 37 32 30 30 29 30 31 28 26 22 14 1 357 355 346 313 268 251 259 251 270 246 237 227 231 213 230 230 240 236 232 222 219 217 223 229 228 217 224 230 238 231
41 42 37 35 33 36 37 36 35 37 39 36 32 27 21 5 347 293 258 253 253 233 234 236 215 198 198 224 235 235 239 219 221 219 219 217 222 227 232 235 234 233 230
45 42 42 40 39 38 39 41 42 42 41 43 46 42 37 33 25 15 4 262 251 228 192 202 206 208 229 231 222 228 227 212 215 219 216 222 225 229 232 239 245 237 243
48 44 44 42 42 42 43 42 42 46 45 44 46 49 48 43 42 45 49 39 248 217 187 164 189 207 217 219 225 204 211 215 213 213 217 229 228 236 237 246 254 243 235
44 42 40 41 41 43 44 46 45 44 45 46 47 47 47 46 47 53 58 61 57 48 38 56 163 185 203 203 219 206 207 220 210 211 217 234 241 238 242 237 235 235 234
41 40 39 41 40 41 42 44 44 45 45 45 47 46 47 45 43 45 52 58 59 61 55 41 28 29 194 195 198 205 197 204 211 223 235 242 243 243 239 236 240 238 238
40 40 39 41 42 42 44 44 45 45 45 45 45 44 44 44 43 43 42 45 49 50 51 50 47 33 26 43 198 201 200 196 215 222 230 231 236 231 231 233 235 240 243
33 40 39 37 38 41 43 43 43 42 42 41 42 42 41 41 41 43 42 40 42 44 45 45 43 41 48 44 42 33 130 168 194 203 210 213 219 218 222 224 227 232 239
43 42 42 39 35 34 36 38 37 36 35 33 33 33 31 31 35 37 38 39 39 43 45 45 45 48 51 53 54 49 45 43 92 148 180 194 207 214 219 222 224 228 233
53 48 44 42 39 36 35 35 33 32 33 32 29 28 27 25 20 25 29 31 33 34 38 42 46 49 51 55 57 54 54 54 51 59 71 101 145 195 219 219 221 222 226
55 51 47 44 41 39 35 35 29 32 31 34 32 23 25 25 22 19 23 23 26 28 27 40 46 47 47 49 52 52 51 55 56 60 60 65 79 82 112 161 191 199 204
49 43 40 34 29 30 30 30 30 27 30 33 34 28 23 27 23 21 20 20 20 21 23 37 40 41 42 41 41 43 45 44 44 47 57 59 58 68 87 110 136 161 160
38 32 30 27 21 21 21 19 15 17 23 27 27 30 25 23 19 20 21 14 15 19 34 35 35 34 34 33 33 35 33 30 31 36 36 48 61 72 91 108 129 142 143
29 24 22 22 23 20 22 18 15 14 12 15 18 20 18 16 16 17 21 9 20 26 32 30 29 26 24 23 22 22 21 19 23 28 36 43 51 75 115 127 136 138 138
16 16 12 14 13 11 10 12 15 13 12 12 13 16 15 12 15 18 21 23 22 20 18 17 17 17 15 11 9 9 10 11 10 15 17 19 37 58 116 137 149 148 146
10 5 4 8 12 9 7 10 10 10 11 13 10 10 6 3 11 15 17 18 20 18 13 8 4 4 0 356 356 355 352 350 357 3 12 19 14 4 12 100 128 143 151
12 6 16 18 23 20 15 13 9 5 3 5 9 12 4 2 5 5 8 10 13 13 13 9 3 358 354 354 347 347 347 344 339 336 342 352 10 352 316 304 319 4 156
24 20 19 24 22 21 20 17 15 7 3 358 353 347 344 347 356 3 2 1 6 9 9 7 6 3 358 350 347 340 329 328 329 320 307 299 290 281 267 263 257 238 178
13 13 12 10 8 6 9 11 3 7 8 9 5 5 354 348 349 351 352 355 351 353 359 0 3 5 4 356 349 334 330 323 305 304 307 297 287 282 278 260 240 232 194
353 354 352 347 344 344 342 344 338 339 341 340 344 349 351 352 353 352 351 346 348 346 355 358 358 0 4 6 357 352 344 332 320 291 282 289 290 287 277 261 233 211 207
339 340 339 338 335 334 333 332 331 333 331 331 329 324 334 337 343 344 347 350 355 356 355 351 348 349 353 358 2 356 348 341 323 302 268 265 270 267 267 264 260 240 224
332 332 331 329 331 334 334 333 333 331 330 329 338 327 306 304 301 316 339 338 336 338 343 350 348 343 353 357 357 356 356 347 328 302 282 263 258 266 270 271 272 254 220
Height
1431 1429 1428 1424 1420 1415 1410 1405 1400 1396 1391 1387 1383 1378 1375 1372 1371 1371 1374 1377 1379 1382 1383 1388 1389 1393 1398 1403 1407 1412 1415 1419 1422 1425 1429 1432 1432 1435 1439 1442 1446 1450 1454
1433 1433 1430 1424 1418 1412 1407 1404 1398 1392 1387 1383 1379 1376 1370 1368 1365 1365 1367 1368 1371 1373 1375 1376 1378 1382 1388 1393 1398 1404 1409 1412 1415 1417 1421 1424 1427 1430 1434 1435 1439 1444 1448
1437 1433 1429 1423 1417 1411 1406 1400 1394 1389 1385 1379 1375 1372 1366 1363 1360 1358 1359 1362 1364 1366 1366 1366 1369 1372 1376 1382 1389 1396 1401 1404 1409 1409 1415 1418 1422 1426 1428 1430 1433 1437 1441
1438 1432 1428 1423 1418 1412 1407 1399 1394 1390 1384 1378 1373 1370 1363 1358 1354 1354 1354 1355 1356 1357 1356 1358 1360 1365 1372 1377 1382 1389 1393 1396 1399 1402 1404 1410 1414 1419 1421 1424 1427 1430 1434
1439 1433 1429 1426 1421 1416 1409 1402 1397 1391 1384 1379 1376 1370 1362 1355 1349 1347 1347 1347 1345 1346 1344 1350 1354 1356 1362 1372 1378 1378 1379 1384 1388 1393 1397 1402 1406 1409 1412 1417 1421 1424 1427
1440 1434 1433 1429 1425 1420 1412 1406 1402 1393 1385 1383 1378 1369 1361 1354 1349 1345 1343 1343 1345 1337 1343 1346 1336 1352 1361 1367 1369 1369 1372 1374 1380 1385 1389 1395 1399 1402 1407 1410 1414 1416 1419
1442 1438 1436 1433 1428 1422 1417 1412 1405 1397 1394 1389 1379 1372 1363 1358 1351 1345 1341 1341 1341 1340 1333 1341 1344 1351 1357 1360 1361 1363 1363 1368 1374 1380 1383 1387 1392 1397 1401 1403 1406 1409 1412
1444 1442 1439 1436 1432 1428 1422 1416 1411 1406 1401 1395 1386 1378 1369 1362 1357 1351 1342 1339 1338 1336 1338 1333 1341 1346 1349 1352 1354 1353 1359 1364 1368 1373 1377 1381 1385 1389 1392 1396 1399 1400 1402
1449 1447 1444 1440 1437 1431 1425 1420 1417 1413 1408 1401 1394 1385 1379 1373 1366 1357 1351 1348 1346 1343 1343 1342 1336 1341 1343 1347 1350 1350 1354 1358 1363 1367 1370 1375 1378 1382 1385 1386 1387 1390 1392
1454 1451 1448 1444 1439 1434 1430 1426 1422 1417 1414 1408 1401 1395 1389 1382 1375 1367 1360 1354 1350 1349 1351 1345 1341 1341 1341 1344 1346 1348 1346 1352 1356 1360 1363 1366 1368 1371 1374 1377 1379 1380 1382
1458 1454 1452 1448 1443 1440 1436 1432 1426 1422 1419 1413 1407 1402 1396 1389 1383 1376 1371 1366 1361 1358 1352 1347 1349 1350 1344 1344 1347 1348 1345 1348 1351 1354 1356 1358 1361 1363 1365 1368 1370 1372 1375
1461 1457 1453 1450 1448 1444 1440 1436 1430 1425 1421 1416 1412 1407 1402 1396 1391 1384 1381 1378 1372 1367 1363 1360 1356 1357 1349 1352 1348 1352 1346 1349 1350 1349 1352 1354 1356 1358 1360 1362 1364 1366 1368
1463 1459 1456 1453 1451 1447 1443 1438 1432 1428 1424 1420 1416 1412 1407 1402 1397 1393 1389 1385 1382 1379 1376 1372 1367 1361 1359 1355 1353 1356 1353 1354 1351 1349 1349 1350 1354 1355 1357 1358 1358 1360 1364
1465 1462 1459 1457 1454 1450 1446 1441 1437 1432 1429 1425 1421 1416 1412 1406 1402 1398 1395 1391 1389 1385 1381 1377 1374 1371 1369 1365 1362 1362 1358 1356 1356 1354 1354 1354 1354 1354 1356 1355 1355 1358 1361
1467 1465 1462 1460 1456 1453 1449 1446 1442 1439 1436 1432 1428 1423 1418 1413 1411 1406 1400 1395 1393 1390 1387 1382 1378 1376 1375 1373 1369 1366 1366 1365 1365 1361 1360 1359 1356 1355 1357 1357 1356 1358 1358
1469 1466 1464 1461 1459 1456 1453 1451 1448 1445 1442 1438 1434 1430 1425 1422 1417 1411 1406 1403 1397 1393 1390 1385 1384 1383 1380 1378 1375 1373 1373 1374 1371 1368 1365 1362 1360 1360 1360 1360 1358 1360 1360
1471 1469 1466 1464 1461 1459 1456 1452 1449 1447 1444 1440 1436 1432 1428 1424 1419 1415 1411 1407 1402 1399 1394 1393 1392 1389 1387 1384 1382 1379 1378 1377 1374 1372 1370 1366 1366 1366 1365 1364 1364 1365 1364
1472 1471 1469 1466 1464 1461 1458 1455 1452 1448 1444 1441 1437 1434 1431 1427 1422 1418 1414 1411 1405 1401 1400 1399 1397 1394 1392 1389 1387 1384 1383 1382 1378 1376 1374 1372 1372 1371 1371 1371 1370 1371 1371
1474 1472 1470 1468 1465 1462 1460 1458 1455 1452 1448 1444 1441 1437 1434 1430 1426 1421 1417 1412 1409 1407 1405 1403 1401 1398 1396 1394 1392 1390 1388 1385 1382 1379 1378 1378 1377 1376 1375 1375 1375 1374 1375
1475 1474 1471 1469 1466 1464 1461 1458 1456 1453 1450 1446 1443 1439 1436 1432 1427 1423 1420 1417 1414 1411 1408 1405 1402 1401 1398 1396 1393 1391 1390 1387 1385 1384 1382 1381 1381 1379 1379 1378 1378 1378 1378
1476 1475 1473 1470 1467 1465 1463 1460 1458 1455 1452 1449 1446 1443 1439 1435 1432 1428 1424 1421 1418 1415 1411 1407 1404 1401 1399 1397 1394 1392 1390 1389 1387 1386 1385 1384 1383 1383 1382 1382 1381 1380 1380
1477 1475 1473 1471 1469 1466 1464 1461 1459 1456 1453 1450 1447 1444 1441 1437 1434 1431 1428 1425 1422 1419 1415 1411 1406 1402 1399 1396 1394 1392 1390 1388 1387 1386 1385 1385 1384 1384 1384 1383 1383 1382 1381
1477 1475 1473 1471 1468 1466 1464 1462 1459 1456 1454 1451 1447 1444 1441 1438 1435 1432 1429 1427 1423 1420 1417 1414 1410 1407 1402 1398 1395 1392 1389 1388 1387 1386 1385 1385 1384 1384 1384 1383 1383 1383 1384
1476 1474 1472 1470 1468 1465 1463 1460 1457 1455 1452 1449 1447 1444 1441 1438 1435 1432 1429 1426 1424 1421 1418 1415 1412 1408 1404 1400 1396 1393 1390 1387 1386 1385 1385 1385 1384 1384 1384 1384 1384 1384 1384
1475 1473 1471 1468 1466 1464 1461 1458 1455 1452 1449 1446 1443 1441 1439 1436 1434 1431 1428 1426 1423 1420 1418 1414 1410 1407 1404 1401 1397 1394 1391 1387 1385 1384 1384 1384 1384 1384 1384 1384 1384 1384 1385
1474 1472 1469 1467 1464 1461 1458 1455 1452 1449 1446 1443 1441 1438 1435 1433 1431 1428 1426 1424 1422 1419 1416 1412 1409 1406 1403 1401 1398 1394 1391 1387 1385 1384 1383 1383 1383 1383 1383 1384 1384 1383 1384